TimeMST,TemperatureF,Dew PointF,Humidity,Sea Level PressureIn,VisibilityMPH,Wind Direction,Wind SpeedMPH,Gust SpeedMPH,PrecipitationIn,Events,Conditions,WindDirDegrees,DateUTC
12:15 AM,30.2,26.6,86,30.45,0.2,Calm,Calm,-,N/A,,Overcast,0,2013-03-02 07:15:00
12:35 AM,30.2,26.6,86,30.45,0.2,ENE,5.8,-,N/A,,Overcast,70,2013-03-02 07:35:00
12:55 AM,30.2,26.6,86,30.44,0.2,ENE,5.8,-,N/A,,Overcast,70,2013-03-02 07:55:00
1:15 AM,30.2,26.6,86,30.44,0.2,East,3.5,-,N/A,,Overcast,80,2013-03-02 08:15:00
1:35 AM,30.2,26.6,86,30.44,0.2,Calm,Calm,-,N/A,,Overcast,0,2013-03-02 08:35:00
1:55 AM,30.2,26.6,86,30.44,0.2,Calm,Calm,-,N/A,,Overcast,0,2013-03-02 08:55:00
2:15 AM,32.0,28.4,87,30.43,0.2,ESE,3.5,-,N/A,,Overcast,110,2013-03-02 09:15:00
2:35 AM,32.0,28.4,87,30.43,0.2,East,4.6,-,N/A,,Overcast,100,2013-03-02 09:35:00
2:55 AM,32.0,26.6,80,30.42,0.2,ESE,4.6,-,N/A,,Overcast,110,2013-03-02 09:55:00
3:15 AM,32.0,28.4,87,30.42,0.2,East,4.6,-,N/A,,Overcast,100,2013-03-02 10:15:00
3:35 AM,32.0,28.4,87,30.41,0.2,ESE,3.5,-,N/A,,Overcast,120,2013-03-02 10:35:00
3:55 AM,32.0,28.4,87,30.40,0.8,SE,5.8,-,N/A,,Overcast,130,2013-03-02 10:55:00
4:15 AM,32.0,28.4,87,30.40,0.5,ESE,3.5,-,N/A,,Overcast,120,2013-03-02 11:15:00
4:35 AM,32.0,26.6,80,30.40,0.2,SE,3.5,-,N/A,,Overcast,130,2013-03-02 11:35:00
4:55 AM,30.2,26.6,86,30.39,0.2,ESE,4.6,-,N/A,,Overcast,120,2013-03-02 11:55:00
5:15 AM,30.2,26.6,86,30.39,0.2,SSW,4.6,-,N/A,,Overcast,200,2013-03-02 12:15:00
5:35 AM,30.2,26.6,86,30.39,0.2,Calm,Calm,-,N/A,,Overcast,0,2013-03-02 12:35:00
5:55 AM,32.0,26.6,80,30.38,0.2,South,6.9,-,N/A,,Overcast,190,2013-03-02 12:55:00
6:15 AM,32.0,28.4,87,30.37,0.2,South,4.6,-,N/A,,Overcast,180,2013-03-02 13:15:00
6:35 AM,32.0,26.6,80,30.36,3.0,SE,6.9,-,N/A,,Scattered Clouds,130,2013-03-02 13:35:00
6:55 AM,33.8,28.4,81,30.36,9.0,ESE,4.6,-,N/A,,Clear,120,2013-03-02 13:55:00
7:15 AM,32.0,26.6,80,30.35,5.0,SE,3.5,-,N/A,,Clear,140,2013-03-02 14:15:00
7:35 AM,33.8,28.4,81,30.35,10.0,SSE,10.4,-,N/A,,Clear,150,2013-03-02 14:35:00
7:55 AM,35.6,28.4,75,30.34,10.0,SSE,9.2,-,N/A,,Clear,160,2013-03-02 14:55:00
8:15 AM,35.6,30.2,81,30.34,10.0,SSE,9.2,-,N/A,,Clear,150,2013-03-02 15:15:00
8:35 AM,37.4,30.2,75,30.34,10.0,SSE,11.5,16.1,N/A,,Clear,160,2013-03-02 15:35:00
8:55 AM,39.2,30.2,70,30.34,10.0,SSE,11.5,-,N/A,,Clear,150,2013-03-02 15:55:00
9:15 AM,39.2,30.2,70,30.33,10.0,SSE,12.7,-,N/A,,Clear,160,2013-03-02 16:15:00
9:35 AM,41.0,30.2,65,30.33,10.0,SSE,15.0,20.7,N/A,,Clear,160,2013-03-02 16:35:00
9:55 AM,42.8,32.0,66,30.33,10.0,SSE,15.0,-,N/A,,Clear,160,2013-03-02 16:55:00
10:15 AM,44.6,33.8,66,30.33,10.0,SSE,10.4,-,N/A,,Clear,160,2013-03-02 17:15:00
10:35 AM,46.4,33.8,62,30.32,10.0,SSE,10.4,-,N/A,,Clear,160,2013-03-02 17:35:00
10:55 AM,46.4,35.6,66,30.31,10.0,South,6.9,-,N/A,,Clear,180,2013-03-02 17:55:00
11:15 AM,48.2,35.6,62,30.30,10.0,SSW,6.9,-,N/A,,Clear,200,2013-03-02 18:15:00
11:35 AM,48.2,35.6,62,30.29,10.0,South,6.9,-,N/A,,Clear,180,2013-03-02 18:35:00
11:55 AM,50.0,37.4,62,30.27,10.0,SSW,5.8,-,N/A,,Clear,210,2013-03-02 18:55:00
12:15 PM,53.6,37.4,54,30.27,10.0,South,5.8,-,N/A,,Clear,190,2013-03-02 19:15:00
12:35 PM,51.8,37.4,58,30.26,10.0,WSW,6.9,-,N/A,,Clear,240,2013-03-02 19:35:00
12:55 PM,51.8,37.4,58,30.24,10.0,SW,10.4,-,N/A,,Clear,230,2013-03-02 19:55:00
1:15 PM,53.6,35.6,51,30.23,10.0,SSW,8.1,-,N/A,,Clear,210,2013-03-02 20:15:00
1:35 PM,53.6,37.4,54,30.19,10.0,South,5.8,-,N/A,,Clear,180,2013-03-02 20:35:00
1:55 PM,51.8,39.2,62,30.18,10.0,West,3.5,-,N/A,,Clear,280,2013-03-02 20:55:00
2:15 PM,53.6,39.2,58,30.17,10.0,WNW,8.1,-,N/A,,Clear,290,2013-03-02 21:15:00
2:35 PM,53.6,39.2,58,30.16,10.0,WNW,5.8,-,N/A,,Clear,290,2013-03-02 21:35:00
2:55 PM,53.6,39.2,58,30.15,10.0,WNW,9.2,-,N/A,,Clear,300,2013-03-02 21:55:00
3:15 PM,53.6,39.2,58,30.14,10.0,NW,6.9,-,N/A,,Clear,320,2013-03-02 22:15:00
3:35 PM,53.6,39.2,58,30.13,10.0,NW,8.1,-,N/A,,Clear,320,2013-03-02 22:35:00
3:55 PM,53.6,39.2,58,30.13,10.0,NNW,5.8,-,N/A,,Clear,330,2013-03-02 22:55:00
4:15 PM,53.6,39.2,58,30.12,10.0,NW,6.9,-,N/A,,Partly Cloudy,320,2013-03-02 23:15:00
4:55 PM,53.6,39.2,58,30.10,10.0,North,5.8,-,N/A,,Clear,360,2013-03-02 23:55:00
5:15 PM,53.6,39.2,58,30.10,10.0,North,6.9,-,N/A,,Partly Cloudy,360,2013-03-03 00:15:00
5:35 PM,51.8,39.2,62,30.09,10.0,NNW,6.9,-,N/A,,Clear,330,2013-03-03 00:35:00
5:55 PM,51.8,39.2,62,30.09,10.0,NNW,9.2,-,N/A,,Clear,340,2013-03-03 00:55:00
6:15 PM,48.2,37.4,66,30.09,10.0,NNW,8.1,-,N/A,,Clear,330,2013-03-03 01:15:00
6:35 PM,48.2,37.4,66,30.09,10.0,NW,6.9,-,N/A,,Clear,320,2013-03-03 01:35:00
6:55 PM,46.4,37.4,71,30.09,10.0,NW,6.9,-,N/A,,Scattered Clouds,310,2013-03-03 01:55:00
7:15 PM,46.4,37.4,71,30.08,10.0,NW,5.8,-,N/A,,Mostly Cloudy,320,2013-03-03 02:15:00
7:35 PM,46.4,37.4,71,30.08,10.0,WNW,4.6,-,N/A,,Overcast,300,2013-03-03 02:35:00
7:55 PM,46.4,37.4,71,30.07,10.0,WNW,3.5,-,N/A,,Overcast,290,2013-03-03 02:55:00
8:15 PM,46.4,37.4,71,30.07,10.0,West,5.8,-,N/A,,Overcast,270,2013-03-03 03:15:00
8:35 PM,46.4,37.4,71,30.07,10.0,West,5.8,-,N/A,,Scattered Clouds,270,2013-03-03 03:35:00
8:55 PM,44.6,37.4,76,30.06,10.0,West,3.5,-,N/A,,Mostly Cloudy,270,2013-03-03 03:55:00
9:15 PM,44.6,35.6,71,30.06,10.0,WNW,8.1,-,N/A,,Mostly Cloudy,290,2013-03-03 04:15:00
9:35 PM,44.6,35.6,71,30.05,10.0,NNW,5.8,-,N/A,,Mostly Cloudy,340,2013-03-03 04:35:00
9:55 PM,44.6,35.6,71,30.06,10.0,West,5.8,-,N/A,,Overcast,260,2013-03-03 04:55:00
10:15 PM,44.6,35.6,71,30.04,10.0,SSE,4.6,-,N/A,,Overcast,160,2013-03-03 05:15:00
10:35 PM,42.8,35.6,76,30.05,10.0,NW,5.8,-,N/A,,Mostly Cloudy,310,2013-03-03 05:35:00
10:55 PM,42.8,35.6,76,30.05,10.0,NNW,4.6,-,N/A,,Overcast,330,2013-03-03 05:55:00
11:15 PM,42.8,35.6,76,30.04,10.0,Calm,Calm,-,N/A,,Scattered Clouds,0,2013-03-03 06:15:00
11:35 PM,42.8,35.6,76,30.04,10.0,Calm,Calm,-,N/A,,Scattered Clouds,0,2013-03-03 06:35:00
11:55 PM,41.0,35.6,81,30.03,10.0,Calm,Calm,-,N/A,,Mostly Cloudy,0,2013-03-03 06:55:00